Probability
68 65 61 61 26 0 0 0 0 0 0 3 3 0 0 0 0 6 16 10 10 13 23 35 48 48 52 48 42 45 42 42 48 52 52 58 58 71 68 71 77 77 74 68 71 71 77 77 84
71 61 58 39 10 0 0 0 0 0 0 3 6 0 0 3 3 13 10 13 10 23 29 26 45 48 48 42 42 39 39 42 39 42 45 45 52 58 55 58 61 65 61 61 65 71 74 77 77
74 71 55 13 0 0 0 0 0 0 3 3 6 3 0 6 10 16 16 16 16 19 23 26 42 35 32 35 32 32 29 29 29 29 32 35 35 35 42 55 61 61 58 61 58 74 68 74 68
68 65 35 3 3 0 0 0 0 0 6 6 6 3 6 13 16 19 23 19 19 19 16 26 39 32 29 29 19 16 16 13 16 19 19 16 29 29 32 32 52 48 48 55 58 58 58 58 55
71 52 6 0 0 0 0 0 0 0 3 3 3 3 10 29 29 23 23 19 19 13 16 16 29 29 19 19 19 19 16 10 10 6 16 19 13 23 16 19 23 26 42 45 48 52 35 35 45
65 19 0 0 0 0 0 0 0 0 0 3 3 3 10 26 19 19 16 13 6 10 10 6 26 19 19 13 16 13 6 13 10 6 3 6 6 10 13 19 23 19 26 32 39 42 39 42 32
55 6 0 0 0 0 0 0 3 0 3 3 6 3 16 23 26 26 19 19 13 10 6 6 3 6 19 16 10 6 6 3 0 0 0 3 3 3 3 6 13 13 19 26 29 32 35 32 29
77 10 0 0 0 0 0 0 3 6 3 3 3 3 13 29 26 26 16 13 10 6 6 3 3 6 6 3 10 6 0 0 0 0 3 3 3 3 3 3 10 10 10 13 13 19 19 26 39
52 3 0 0 0 0 0 0 3 3 3 6 6 3 13 26 23 19 19 13 10 3 0 3 0 0 0 0 0 3 0 0 0 3 3 0 0 0 0 0 3 0 3 10 3 6 13 19 29
45 0 0 0 6 6 0 0 6 0 0 3 10 10 19 23 19 19 16 10 6 3 0 0 0 0 0 0 0 0 0 0 0 0 0 0 0 0 0 0 3 6 3 6 3 3 6 10 16
16 3 6 3 6 3 0 0 3 0 0 3 6 10 26 19 19 19 6 6 0 3 0 0 0 0 0 0 0 0 0 0 0 0 0 0 0 0 0 0 0 3 0 3 3 3 6 6 13
10 13 6 6 6 3 0 3 3 3 3 6 6 13 19 16 13 16 3 3 3 3 3 3 0 0 0 0 0 0 0 0 0 0 0 0 0 0 0 0 0 0 0 3 3 6 0 3 3
6 13 10 10 6 3 3 3 0 0 3 3 6 6 13 13 13 10 3 3 3 3 3 3 0 0 0 0 0 0 0 0 0 0 0 0 0 0 0 0 0 0 0 0 0 0 0 0 0
13 10 6 3 6 6 3 3 0 0 0 6 6 6 13 10 13 10 3 3 0 0 0 0 0 0 0 0 0 0 0 0 0 0 0 0 0 0 0 0 0 0 0 0 0 0 0 0 0
13 3 3 3 3 6 0 0 0 0 0 10 6 6 10 10 16 10 3 3 3 0 0 0 0 0 0 0 0 0 0 0 0 0 0 0 0 0 0 0 0 0 0 0 0 0 0 0 0
6 3 3 3 6 6 0 0 0 3 0 3 6 6 10 6 10 10 3 0 0 0 0 0 0 0 0 0 0 0 0 0 0 0 0 0 0 0 0 0 0 0 0 0 0 0 0 0 0
3 3 3 3 3 6 0 0 0 3 3 3 3 6 10 6 10 6 3 0 0 0 0 0 0 0 0 0 0 0 0 0 0 0 0 0 0 0 0 0 0 0 0 0 0 0 0 0 3
0 0 0 0 0 0 3 0 0 3 0 0 0 3 6 10 10 3 3 3 0 0 0 0 0 0 0 0 0 0 0 0 0 0 0 0 0 0 0 0 0 0 0 0 0 0 3 3 3
0 0 0 0 0 0 0 0 0 0 0 0 0 0 10 10 3 3 3 3 3 3 0 0 0 0 0 0 0 0 0 0 0 0 0 0 0 0 0 0 0 0 3 0 0 0 0 0 0
0 0 0 0 0 0 0 0 0 0 0 0 0 0 0 3 6 6 6 10 10 6 3 0 0 0 0 0 0 0 0 0 0 0 0 0 0 0 0 0 0 0 3 0 0 3 6 0 0
0 0 0 0 0 0 0 0 0 0 0 0 0 0 0 3 3 10 6 10 6 6 0 0 0 0 0 0 0 0 0 0 0 0 0 0 0 0 0 0 0 0 0 0 0 3 3 3 3
0 0 0 0 0 0 0 0 0 0 0 0 0 0 0 0 3 3 6 6 3 3 0 0 0 0 0 0 0 0 0 0 0 0 0 0 0 0 0 0 0 0 0 0 0 0 6 3 3
0 0 0 0 0 0 0 0 0 0 0 0 0 0 0 0 0 0 3 6 6 3 6 0 0 0 0 0 0 0 0 0 0 0 0 0 0 0 0 0 0 0 3 3 0 6 6 13 10
0 0 0 0 0 0 0 0 0 0 0 0 0 0 0 0 0 0 3 3 3 0 3 0 0 0 0 0 0 0 0 0 0 0 0 0 0 0 0 0 0 0 3 3 3 3 10 10 6
0 0 0 0 0 0 0 0 0 0 0 0 0 0 0 0 0 0 3 3 3 3 3 0 0 0 0 0 0 0 0 0 0 0 0 0 0 0 0 0 0 3 3 6 3 3 3 3 10
0 0 0 0 0 0 0 0 0 0 0 0 0 0 0 0 0 0 3 3 3 3 0 0 0 0 0 0 0 0 0 0 0 0 0 0 0 0 0 0 0 0 0 0 0 6 0 3 6
0 0 0 0 0 0 0 0 0 0 0 0 0 0 0 0 0 0 3 3 3 0 0 0 0 0 0 0 0 0 0 0 0 0 0 0 0 0 0 0 0 0 0 3 0 6 0 3 6
0 0 0 0 0 0 0 0 0 0 0 0 0 0 0 0 0 3 3 3 3 0 0 0 0 0 0 0 0 0 0 0 0 0 0 0 0 0 0 3 0 0 0 3 6 6 6 6 6
0 0 0 0 0 0 0 0 0 0 0 0 0 0 0 0 0 3 3 3 3 0 0 0 0 0 0 0 0 0 0 0 0 0 0 0 0 0 0 0 0 0 0 0 0 3 3 6 0
0 0 0 0 0 0 0 0 0 0 0 0 0 0 0 0 0 0 3 0 0 0 0 0 0 0 0 0 0 0 0 0 0 0 0 0 0 0 0 0 0 0 0 0 0 0 0 6 6
Height
5871 5872 5873 5874 5875 5875 5874 5874 5873 5873 5873 5874 5874 5874 5875 5875 5876 5879 5876 5875 5875 5875 5875 5874 5874 5873 5873 5872 5872 5871 5871 5871 5870 5870 5869 5869 5868 5868 5867 5867 5866 5866 5866 5866 5866 5866 5867 5867 5868
5870 5871 5873 5874 5874 5874 5875 5874 5874 5873 5873 5873 5873 5874 5874 5874 5874 5875 5874 5874 5874 5874 5873 5873 5872 5872 5871 5871 5870 5870 5869 5869 5868 5868 5867 5867 5866 5865 5865 5864 5864 5863 5863 5863 5863 5863 5864 5864 5865
5868 5870 5872 5873 5873 5874 5874 5874 5873 5873 5873 5873 5873 5873 5874 5874 5874 5873 5873 5873 5873 5872 5872 5871 5871 5871 5870 5869 5869 5868 5868 5867 5867 5866 5865 5864 5864 5863 5862 5861 5861 5860 5860 5860 5860 5860 5860 5861 5861
5867 5869 5871 5873 5872 5873 5873 5873 5872 5872 5872 5872 5873 5873 5873 5873 5872 5872 5872 5871 5871 5871 5870 5870 5869 5869 5868 5868 5868 5867 5866 5866 5865 5864 5863 5862 5861 5860 5859 5859 5858 5857 5857 5856 5856 5856 5857 5857 5858
5865 5868 5869 5870 5871 5872 5872 5872 5872 5872 5871 5871 5872 5872 5872 5872 5871 5871 5870 5870 5870 5869 5869 5868 5868 5867 5867 5866 5866 5865 5864 5864 5862 5861 5860 5859 5858 5857 5856 5855 5854 5854 5853 5852 5852 5853 5853 5854 5854
5864 5866 5868 5869 5870 5870 5870 5870 5871 5871 5871 5871 5871 5871 5871 5871 5870 5870 5869 5869 5868 5868 5867 5867 5866 5866 5865 5865 5864 5864 5862 5861 5860 5859 5858 5857 5855 5854 5853 5852 5851 5850 5849 5849 5849 5849 5849 5850 5850
5862 5864 5865 5867 5868 5869 5869 5869 5869 5869 5870 5870 5870 5870 5869 5869 5869 5869 5868 5868 5867 5867 5866 5866 5865 5865 5864 5864 5863 5862 5861 5860 5858 5857 5856 5854 5853 5851 5850 5849 5847 5846 5846 5845 5845 5845 5845 5846 5846
5859 5862 5863 5865 5866 5867 5867 5868 5868 5868 5869 5869 5869 5869 5869 5868 5868 5867 5867 5867 5866 5866 5865 5865 5864 5864 5863 5862 5861 5860 5859 5858 5856 5855 5853 5852 5850 5848 5847 5845 5844 5843 5842 5841 5841 5841 5841 5842 5842
5856 5860 5861 5863 5864 5865 5865 5866 5867 5867 5867 5867 5867 5868 5867 5867 5866 5866 5866 5866 5865 5865 5864 5864 5863 5862 5862 5861 5860 5858 5857 5855 5854 5852 5851 5849 5847 5845 5843 5842 5840 5839 5838 5837 5837 5837 5837 5837 5838
5854 5857 5859 5860 5861 5863 5863 5864 5865 5865 5865 5866 5866 5866 5866 5865 5865 5865 5865 5864 5864 5863 5863 5862 5862 5861 5860 5859 5858 5856 5855 5854 5852 5850 5848 5846 5844 5842 5840 5838 5837 5835 5834 5834 5833 5833 5832 5832 5833
5851 5854 5856 5857 5859 5860 5861 5862 5863 5863 5864 5864 5864 5865 5864 5864 5864 5863 5863 5863 5862 5862 5862 5861 5861 5860 5859 5857 5856 5855 5853 5852 5850 5848 5846 5844 5841 5839 5837 5835 5833 5832 5830 5829 5829 5828 5828 5828 5829
5848 5851 5853 5855 5857 5858 5859 5860 5861 5862 5863 5863 5863 5863 5863 5862 5862 5862 5862 5861 5861 5861 5861 5860 5859 5858 5857 5856 5855 5853 5852 5850 5848 5846 5843 5841 5839 5836 5834 5832 5829 5828 5826 5825 5824 5823 5823 5823 5824
5845 5848 5851 5853 5855 5856 5857 5858 5859 5860 5861 5861 5861 5861 5861 5861 5860 5860 5860 5860 5860 5859 5859 5859 5858 5857 5856 5855 5854 5852 5850 5848 5846 5844 5841 5839 5836 5833 5831 5828 5826 5824 5822 5821 5819 5818 5818 5818 5819
5842 5846 5848 5851 5853 5854 5856 5857 5858 5858 5859 5859 5860 5860 5860 5859 5859 5859 5859 5859 5859 5858 5858 5858 5857 5856 5855 5854 5852 5851 5849 5846 5844 5841 5839 5836 5833 5830 5828 5825 5822 5820 5818 5816 5815 5813 5813 5813 5813
5840 5844 5847 5849 5851 5852 5854 5855 5856 5857 5857 5858 5858 5858 5858 5858 5858 5857 5857 5857 5857 5857 5857 5856 5856 5854 5853 5852 5851 5849 5847 5844 5842 5839 5836 5833 5830 5827 5824 5821 5818 5816 5813 5811 5810 5808 5808 5807 5808
5839 5843 5846 5848 5849 5851 5854 5855 5855 5855 5856 5856 5857 5857 5857 5857 5856 5856 5856 5856 5856 5856 5856 5855 5854 5853 5852 5851 5849 5847 5845 5842 5840 5837 5834 5831 5827 5824 5821 5818 5815 5812 5809 5807 5805 5804 5803 5802 5803
5838 5841 5844 5847 5848 5850 5852 5853 5853 5854 5854 5854 5855 5855 5855 5855 5855 5855 5855 5855 5855 5855 5854 5854 5853 5852 5851 5849 5848 5845 5843 5840 5838 5834 5831 5828 5825 5821 5818 5814 5811 5808 5805 5803 5801 5799 5798 5798 5798
5837 5840 5843 5845 5847 5849 5850 5851 5852 5852 5852 5853 5853 5854 5854 5854 5854 5854 5854 5854 5854 5854 5853 5853 5852 5851 5849 5848 5846 5844 5841 5839 5836 5832 5829 5825 5822 5818 5815 5811 5808 5805 5802 5799 5796 5795 5794 5793 5793
5836 5839 5842 5844 5846 5848 5849 5850 5850 5851 5851 5851 5852 5852 5852 5852 5852 5852 5852 5853 5853 5853 5852 5851 5850 5849 5848 5846 5844 5842 5840 5837 5834 5830 5827 5823 5820 5816 5812 5809 5805 5802 5798 5795 5793 5791 5790 5789 5789
5836 5839 5841 5844 5845 5847 5848 5849 5849 5849 5850 5850 5851 5851 5851 5851 5851 5851 5851 5851 5852 5851 5851 5850 5849 5848 5846 5845 5843 5840 5838 5835 5832 5828 5825 5821 5817 5814 5810 5806 5802 5799 5795 5792 5790 5787 5786 5785 5785
5836 5838 5841 5843 5844 5846 5848 5848 5848 5849 5849 5849 5850 5850 5850 5850 5850 5850 5850 5850 5850 5850 5849 5848 5847 5846 5845 5843 5841 5838 5836 5833 5830 5827 5823 5819 5815 5812 5808 5804 5800 5796 5793 5790 5787 5784 5782 5782 5781
5836 5838 5840 5842 5845 5846 5848 5849 5849 5848 5849 5849 5849 5849 5849 5849 5849 5849 5849 5849 5849 5848 5848 5847 5846 5844 5843 5841 5839 5836 5834 5831 5828 5824 5821 5817 5813 5810 5806 5802 5798 5794 5791 5787 5784 5781 5779 5778 5778
5836 5839 5841 5843 5845 5846 5847 5849 5849 5848 5848 5849 5848 5848 5848 5848 5848 5848 5848 5848 5848 5847 5846 5845 5844 5843 5841 5839 5836 5834 5831 5829 5825 5822 5819 5815 5812 5808 5804 5800 5796 5793 5789 5785 5782 5779 5777 5775 5775
5837 5840 5842 5844 5845 5846 5847 5849 5848 5847 5848 5848 5848 5848 5848 5848 5847 5847 5847 5847 5846 5846 5845 5844 5842 5841 5839 5837 5834 5832 5829 5826 5823 5820 5817 5813 5810 5806 5802 5799 5795 5791 5787 5784 5780 5777 5775 5773 5772
5839 5841 5844 5845 5846 5846 5847 5847 5848 5847 5847 5847 5847 5847 5847 5846 5846 5846 5846 5845 5845 5844 5843 5842 5840 5839 5837 5835 5832 5830 5827 5824 5822 5818 5815 5812 5808 5805 5801 5797 5793 5790 5786 5783 5779 5776 5774 5772 5770
5839 5842 5844 5846 5846 5846 5846 5846 5847 5847 5847 5846 5846 5846 5845 5845 5845 5844 5844 5843 5842 5841 5840 5839 5838 5836 5834 5832 5830 5827 5825 5822 5819 5816 5813 5810 5806 5803 5799 5796 5792 5789 5785 5782 5779 5776 5773 5771 5769
5840 5841 5843 5844 5845 5846 5846 5846 5846 5845 5846 5845 5845 5844 5844 5844 5843 5843 5842 5841 5840 5839 5838 5836 5835 5833 5831 5829 5827 5825 5822 5820 5817 5814 5811 5808 5804 5801 5798 5794 5791 5788 5784 5781 5778 5775 5773 5771 5769
5841 5841 5843 5844 5844 5845 5845 5845 5846 5845 5844 5844 5844 5843 5843 5842 5841 5841 5840 5839 5838 5837 5835 5834 5832 5830 5828 5826 5824 5822 5819 5817 5814 5811 5808 5805 5802 5799 5796 5792 5789 5786 5783 5780 5777 5775 5772 5770 5768
5841 5842 5842 5843 5844 5845 5845 5847 5844 5844 5843 5843 5842 5841 5841 5840 5839 5838 5837 5836 5835 5834 5832 5831 5829 5827 5825 5823 5821 5818 5816 5814 5811 5808 5805 5802 5799 5796 5793 5790 5787 5785 5782 5779 5776 5774 5771 5770 5768
5840 5841 5842 5843 5843 5843 5844 5847 5843 5842 5842 5841 5840 5840 5839 5838 5837 5836 5834 5833 5832 5830 5829 5827 5825 5823 5821 5819 5817 5815 5812 5810 5807 5805 5802 5799 5797 5794 5791 5788 5785 5783 5780 5778 5775 5773 5770 5768 5767
Wind_Speed
6 5 3 1 1 2 3 3 2 2 2 1 0 1 2 3 2 4 4 5 5 5 6 6 6 6 7 7 8 8 8 8 8 9 10 10 11 11 12 13 13 14 14 14 14 14 14 14 13
8 6 4 3 1 1 1 2 1 1 1 0 1 1 1 2 3 4 5 5 6 6 7 7 7 7 7 7 8 8 8 9 9 10 11 11 12 12 13 13 13 14 15 15 15 15 15 15 15
9 7 5 3 2 2 1 1 1 1 1 1 1 1 1 2 2 4 5 5 6 7 7 7 8 8 8 8 8 8 9 10 11 11 12 13 13 13 13 14 15 15 16 16 16 16 16 16 16
10 8 7 5 4 3 3 2 2 2 2 2 2 2 3 3 3 4 5 5 6 6 7 7 8 8 8 8 8 8 9 10 11 12 13 13 13 13 14 15 15 16 16 17 17 17 17 17 17
11 10 8 7 5 4 4 3 3 3 3 3 4 4 4 4 4 4 4 5 5 6 6 7 6 6 7 7 8 9 10 11 12 12 13 14 14 15 15 16 16 16 17 17 17 18 18 18 18
12 11 9 7 7 6 5 4 4 4 4 4 4 4 4 4 4 4 5 6 6 6 6 5 5 5 6 7 8 10 10 11 12 12 13 14 14 15 16 17 17 17 17 18 18 18 19 18 18
14 12 10 9 8 7 6 5 5 5 4 4 4 5 5 5 4 5 5 5 5 5 5 4 4 5 6 7 8 10 10 11 11 12 14 15 15 16 16 17 18 18 18 18 19 19 19 18 18
15 13 12 10 9 9 7 7 6 5 5 5 5 6 6 5 5 5 5 5 5 5 4 4 4 5 6 7 9 10 11 11 12 12 13 14 15 16 17 17 17 18 18 18 19 19 19 19 19
16 14 13 12 11 9 9 8 7 7 6 6 6 6 6 6 6 6 5 5 5 5 4 4 4 6 7 8 9 10 10 11 12 13 14 14 15 16 17 17 17 17 17 18 18 19 19 20 19
16 14 13 12 12 11 9 8 7 7 7 6 6 7 7 6 6 6 5 5 5 5 4 4 5 7 8 9 9 10 10 11 12 13 14 15 15 16 16 17 17 17 18 18 19 19 20 20 20
17 15 14 13 12 11 10 9 8 8 7 7 7 7 7 7 7 7 6 6 6 5 5 5 6 7 8 8 9 10 11 11 13 14 14 15 15 16 16 17 18 18 18 19 19 20 20 21 22
18 16 15 13 12 11 11 10 9 8 7 7 8 8 8 8 8 8 7 6 5 5 5 5 7 7 8 8 9 10 11 12 13 14 14 15 16 16 16 17 18 18 18 19 20 21 21 21 22
19 17 15 14 12 11 11 10 9 8 8 8 8 8 8 9 8 8 7 6 6 6 6 6 7 7 8 9 9 10 12 13 14 14 15 16 16 17 17 17 18 18 19 19 20 21 21 22 22
19 17 16 14 13 12 11 10 9 8 8 8 8 8 8 8 8 7 7 7 7 6 6 6 7 7 8 9 10 11 12 13 14 15 16 16 17 18 18 18 18 19 19 19 19 20 21 22 22
18 17 15 14 13 12 11 10 9 9 8 8 8 8 8 8 7 6 7 7 7 7 7 7 7 7 8 9 10 12 13 14 15 16 16 17 17 18 18 19 19 19 19 19 18 18 19 20 21
17 16 14 13 11 10 10 9 9 9 8 8 8 7 8 8 7 7 7 7 7 7 7 8 8 8 9 10 11 12 13 14 15 16 17 17 18 18 19 19 19 19 19 19 18 18 18 19 20
17 15 14 12 10 9 9 8 8 8 8 8 7 7 7 7 7 7 7 7 7 7 7 8 8 9 10 10 11 13 13 14 16 16 17 18 18 19 19 19 19 19 18 18 18 17 17 18 18
15 14 13 11 10 8 8 8 8 7 7 7 6 7 7 7 7 7 7 7 7 7 7 8 9 9 10 11 12 13 14 15 16 17 17 18 18 19 19 19 19 19 18 17 16 16 16 17 17
14 13 12 11 9 8 8 7 7 6 6 5 6 6 7 7 6 6 7 7 7 7 7 8 9 10 11 11 12 13 14 15 16 16 17 18 19 19 19 19 19 18 17 16 15 14 15 15 16
13 13 12 10 8 7 7 6 6 5 5 4 4 5 6 6 5 6 6 7 7 7 8 8 9 10 11 12 12 13 14 15 15 16 17 18 19 19 19 19 19 17 17 16 15 14 13 14 15
13 12 10 9 8 7 6 5 5 4 4 3 4 4 5 5 5 6 6 7 7 7 8 8 9 10 11 12 13 13 14 15 16 16 17 18 18 19 19 19 19 18 17 16 15 13 13 13 13
12 11 10 9 8 7 6 4 4 3 3 3 4 4 4 4 5 5 5 6 7 8 8 9 9 11 11 12 13 13 14 15 16 17 17 18 18 19 19 19 18 18 17 16 14 13 12 11 12
12 11 9 9 8 6 6 4 3 3 3 3 3 3 3 4 5 5 6 6 7 8 8 9 10 11 12 12 13 14 14 15 16 17 17 18 18 18 19 19 18 18 17 16 14 13 11 10 11
11 11 9 8 7 6 6 5 4 3 2 2 2 3 4 4 5 6 6 7 8 8 9 10 11 12 13 13 14 14 15 16 16 17 17 17 18 18 18 18 18 17 16 16 15 13 10 9 9
10 10 9 7 7 6 5 4 3 2 1 1 2 4 4 5 6 6 7 8 9 10 11 11 12 13 14 14 15 15 16 16 17 17 17 17 18 18 18 18 18 17 16 15 15 13 10 8 7
9 9 9 8 7 6 5 4 2 1 1 2 4 5 5 6 7 8 8 9 10 11 12 13 13 14 15 15 15 16 16 17 17 17 17 18 18 18 18 18 18 17 16 15 14 12 10 8 6
8 7 8 7 6 5 4 3 2 1 2 3 5 6 7 8 9 9 10 10 11 12 13 14 14 15 15 16 16 16 17 17 18 17 18 18 17 17 17 18 17 17 16 14 13 12 10 8 6
8 7 7 6 5 4 3 2 2 3 3 4 5 6 7 8 9 10 11 11 12 12 13 14 15 16 16 17 17 17 18 18 18 18 18 18 18 17 17 17 17 16 15 14 13 12 10 8 6
7 6 6 5 5 4 4 3 3 4 4 5 6 6 7 8 9 10 11 12 13 14 15 15 16 16 17 18 18 19 19 19 19 19 19 19 18 18 17 17 16 15 15 14 13 12 10 8 7
5 5 4 4 4 3 4 4 4 5 5 5 6 7 8 9 10 11 12 13 14 15 16 16 17 18 18 19 19 20 20 20 20 20 20 19 19 19 18 17 16 15 14 14 13 12 10 9 7
Wind_Direction
236 235 223 225 61 46 43 45 65 80 97 98 269 247 231 235 246 250 256 259 266 280 285 289 288 288 293 293 290 291 290 289 289 285 285 282 280 279 278 277 275 271 269 265 264 262 259 256 252
238 229 225 213 185 43 14 19 34 28 50 360 303 258 283 265 264 262 262 264 268 278 286 289 289 288 287 288 287 289 287 286 286 286 286 285 282 280 279 279 276 273 271 268 266 263 261 257 253
232 222 218 211 212 236 276 326 336 343 342 322 314 316 324 309 280 272 270 271 275 281 287 287 287 286 285 285 287 289 290 292 289 289 289 286 283 281 280 280 278 275 272 268 268 265 262 260 254
228 222 221 217 218 234 258 279 309 310 311 312 305 300 302 307 297 286 281 280 283 285 286 285 286 285 284 287 291 292 294 295 293 292 290 288 285 284 282 282 280 277 273 269 267 265 264 261 255
227 222 221 221 224 234 250 270 284 297 295 304 301 299 306 306 303 298 288 286 292 293 292 290 286 286 287 289 292 294 296 297 296 295 293 290 287 287 287 286 284 280 275 270 267 265 263 264 259
222 220 219 221 226 237 249 263 273 288 294 296 296 299 305 302 300 293 288 284 291 296 297 294 287 289 292 293 295 295 298 299 298 298 298 295 292 290 290 287 285 282 278 273 271 268 264 261 257
220 220 220 226 231 240 252 257 263 276 284 282 282 291 302 297 292 288 287 284 290 293 292 294 290 294 296 298 298 299 302 302 299 299 300 298 296 295 293 290 287 283 279 275 273 269 267 263 256
219 221 222 226 232 237 245 251 254 264 271 270 275 286 291 288 285 285 286 284 287 285 287 292 296 299 302 304 303 304 305 305 303 302 302 301 299 297 296 294 290 285 280 277 274 270 266 264 259
216 217 221 223 228 235 241 246 251 262 264 262 267 277 288 287 281 285 285 285 288 282 284 289 301 309 311 310 309 310 312 310 309 309 308 305 303 301 299 297 292 288 283 278 275 273 267 263 261
214 215 218 222 227 234 240 246 251 261 262 263 266 273 282 282 278 280 287 286 286 279 279 287 300 307 311 312 313 314 316 314 313 313 312 309 306 304 302 299 294 289 285 280 276 272 268 263 259
212 214 218 223 228 234 239 244 250 253 258 265 269 274 277 277 277 278 281 283 277 277 280 288 302 307 311 313 314 315 316 316 315 316 316 313 311 308 304 301 298 292 287 283 278 273 268 263 259
211 214 217 222 226 235 241 243 249 251 258 267 273 272 276 275 276 277 276 275 274 274 277 289 300 306 310 312 313 315 316 317 317 318 318 317 315 313 309 305 300 294 289 285 282 275 268 263 259
210 213 216 220 226 235 240 240 247 253 258 265 273 273 273 279 275 273 275 273 274 274 275 288 298 303 307 312 315 318 318 319 319 319 320 319 316 315 314 311 306 300 293 289 285 278 270 265 259
208 212 216 222 230 234 241 239 242 251 260 261 266 271 279 283 278 271 270 270 273 272 274 282 293 298 304 311 315 317 319 320 320 321 321 320 319 318 316 314 309 303 297 292 287 281 271 266 260
205 209 214 221 228 232 235 236 244 255 258 263 266 273 278 282 275 269 267 269 268 270 276 282 291 298 305 311 314 316 320 323 324 324 323 322 321 320 317 315 312 307 302 297 291 283 275 268 260
202 207 214 218 224 230 230 238 249 256 261 266 266 270 277 280 271 266 266 264 265 270 277 284 293 298 305 311 315 318 321 323 325 326 326 325 324 322 321 318 315 311 305 300 294 285 277 270 262
200 203 208 215 222 227 230 236 246 254 259 260 260 269 279 281 277 267 262 258 258 266 276 285 293 299 305 311 315 318 321 323 326 327 327 327 327 326 325 322 319 316 310 304 296 287 278 270 262
195 198 203 208 216 224 229 235 243 254 256 253 257 271 283 281 281 268 260 255 255 263 275 285 295 300 304 309 313 316 320 323 326 328 328 329 330 330 329 327 323 320 316 309 302 290 280 271 262
190 192 196 202 210 217 224 231 241 252 249 250 259 275 282 281 273 262 259 257 257 265 277 285 296 301 304 308 312 317 321 324 327 329 330 331 332 332 332 331 328 325 321 315 307 295 284 274 263
186 187 189 196 206 211 217 221 228 235 234 246 263 273 282 278 267 260 255 255 260 270 279 287 296 301 305 309 313 319 322 325 327 329 331 333 334 334 334 334 333 330 326 321 313 299 289 276 264
181 182 184 189 193 193 192 201 217 217 226 249 268 274 276 275 272 260 252 256 265 275 282 290 297 301 306 310 315 319 323 326 328 330 332 335 336 336 335 336 336 333 329 325 318 307 292 279 265
173 174 173 173 173 176 179 197 210 220 240 262 271 270 272 267 270 268 266 269 273 279 283 288 293 298 304 310 314 318 322 325 328 330 331 334 336 336 337 338 338 337 334 330 325 316 299 283 268
159 159 160 162 164 172 179 186 207 219 233 243 253 256 263 268 267 269 274 279 284 287 290 296 298 301 305 308 313 317 321 324 327 329 330 332 335 337 338 340 341 341 339 336 331 324 307 289 273
146 149 153 156 161 172 176 182 205 207 217 246 255 259 268 277 276 273 275 283 287 292 297 300 303 305 308 310 312 316 320 323 325 327 328 330 333 335 338 340 343 343 342 342 340 333 320 302 281
143 146 151 157 166 175 179 189 200 208 218 276 279 272 273 279 282 281 282 288 290 292 296 301 304 307 308 309 311 314 318 321 323 325 327 329 331 333 337 340 343 343 343 343 344 344 333 316 294
149 152 157 164 171 181 184 192 201 214 246 279 289 288 288 288 289 289 288 289 291 295 297 299 302 306 309 310 311 313 316 318 320 322 324 327 328 330 333 338 341 342 342 343 344 347 344 333 314
148 151 152 159 165 179 188 186 201 234 262 283 291 293 294 294 294 295 294 294 295 297 299 300 301 304 307 310 311 312 314 316 317 318 320 322 325 326 328 331 336 339 341 341 342 343 343 340 325
141 141 148 155 164 178 184 205 228 247 271 285 294 296 299 301 303 303 301 300 299 300 301 301 301 302 305 307 309 311 312 313 313 314 316 318 321 324 324 325 328 333 336 337 339 340 338 337 329
140 141 145 157 168 180 207 220 230 244 262 279 293 302 306 307 307 307 305 304 302 302 303 304 303 303 304 305 306 309 310 311 311 311 312 313 316 320 322 321 322 326 330 331 332 332 330 328 325
139 143 154 167 177 188 216 229 237 253 271 286 294 302 307 310 310 308 308 307 307 305 303 303 303 303 303 303 303 306 308 309 309 309 309 310 311 314 316 316 317 319 321 325 326 325 322 317 313